Regional Weather Roundup
Issued by NWS

Home | Current Version | Previous Version | Graphics & Text | Print | Product List | Glossary On
Versions: 1 2 3 4 5 6 7 8 9 10 11 12 13 14 15 16 17 18 19 20 21 22 23 24 25 26 27 28 29 30 31 32 33 34 35 36 37 38 39 40 41 42 43 44 45 46 47 48 49
000
ASUS45 KBOU 231410
RWRCO

WEATHER ROUNDUP FOR COLORADO
NATIONAL WEATHER SERVICE DENVER/BOULDER CO
800 AM MDT MON APR 23 2018

NOTE: "FAIR" INDICATES FEW OR NO CLOUDS BELOW 12000 FEET WITH NO
SIGNIFICANT WEATHER AND/OR OBSTRUCTIONS TO VISIBILITY.

COZ001>005-013-030-031-231500-
...NORTHWEST COLORADO...

CITY           SKY/WX    TMP DP  RH WIND       PRES   REMARKS
CRAIG          PTSUNNY   43  36  76 W6        30.10S
HAYDEN         FAIR      43  32  65 E12       30.13S
MEEKER         FAIR      41  33  73 CALM      30.12R
RANGELY        FAIR      49  37  62 E6        30.05R
RABBIT EARS PA PTSUNNY   37  23  56 W5        30.28R
STEAMBOAT SPGS FAIR      37  31  79 SE3       30.14F
WALDEN         FAIR      34  27  75 CALM      30.20R
$$

COZ006>008-011-231500-
...WEST CENTRAL VALLEYS...

CITY           SKY/WX    TMP DP  RH WIND       PRES   REMARKS
GRAND JUNCTION FAIR      52  34  50 SE13      30.07R
MONTROSE       FAIR      51  30  44 CALM      30.14S
EAGLE          FAIR      37  31  78 CALM      30.21S
RIFLE          FAIR      41  38  89 CALM      30.13R
DELTA          FAIR      51  33  48 NE3       30.12S
NUCLA          NOT AVBL
$$

COZ017>023-064>068-231500-
...SOUTHWEST COLORADO...

CITY           SKY/WX    TMP DP  RH WIND       PRES   REMARKS
DURANGO        PTSUNNY   42  25  50 CALM      30.21R
CORTEZ         FAIR      43  25  49 E7        30.17R
PAGOSA SPRINGS FAIR      43  22  43 CALM      30.26R
TELLURIDE      FAIR      41  27  56 SE6       30.30S
WOLF CREEK PAS FAIR      32  16  51 SW8       30.44R WCI  25
$$

COZ009-010-012-014-032>034-037-058>063-231500-
...CENTRAL COLORADO...

CITY           SKY/WX    TMP DP  RH WIND       PRES   REMARKS
ASPEN          FAIR      42  29  59 CALM      30.19R
BUENA VISTA    FAIR      42  34  73 NW14      30.23S
COPPER MTN     NOT AVBL
BERTHOUD PASS  FAIR      28  19  69 W22G30    30.34R WCI  15
COTTONWOOD PAS FAIR      45  32  61 CALM      30.28S
GUNNISON       FAIR      36  29  75 CALM      30.27R
GRANBY         FAIR      31  28  90 CALM      30.24S
KREMMLING      FAIR      37  34  87 CALM      30.22S
LEADVILLE      FOG       30  30 100 N3        30.27S VSB 3/4
MONARCH PASS   FAIR      32  25  74 W18       30.46S WCI  20
SALIDA         FAIR      42  34  73 NW7       30.30S
SUNLIGHT       FAIR      34  23  64 SW12G18   30.33S WCI  25
WILKERSON PASS FAIR      34  27  75 SW7       30.33S WCI  28
$$

COZ069>075-231500-
...SAN LUIS VALLEY/SANGRE DE CRISTO MOUNTAINS...

CITY           SKY/WX    TMP DP  RH WIND       PRES   REMARKS
ALAMOSA        FAIR      38  27  64 CALM      30.23R
DEL NORTE      FAIR      41  25  53 W9        30.25R
LA VETA PASS   FAIR      36  27  69 SW21G29   30.40R
SAGUACHE       NOT AVBL
$$

COZ035-036-038>040-231500-
...NORTHERN COLORADO FRONT RANGE...

CITY           SKY/WX    TMP DP  RH WIND       PRES   REMARKS
DENVER INTL AP PTSUNNY   44  38  79 W5        30.09S
AURORA         NOT AVBL
FRONT RANGE AP PTSUNNY   46  41  81 W6        30.10S
ERIE MUNI ARPT FAIR      42  39  89 CALM      30.15F
BOULDER MUN AP FAIR      45  37  76 CALM      30.09F
CENTENNIAL     FAIR      48  38  68 CALM      30.10S
BROOMFIELD     PTSUNNY   46  39  76 CALM      30.11R
FORT COLLINS   FAIR      43  38  82 NE3       30.11S
LONGMONT       FAIR      46  41  83 CALM      30.11F
$$

COZ041-046-047-076>085-087-088-231500-
...PIKES PEAK/PALMER DIVIDE AND SOUTHERN FOOTHILLS...

CITY           SKY/WX    TMP DP  RH WIND       PRES   REMARKS
COLO. SPRINGS  FAIR      43  35  73 CALM      30.14F
A. F. ACADEMY  FAIR      40  35  83 CALM      30.13F
SCHRIEVER AFB  NOT AVBL
CHEYENNE MTN   NOT AVBL
ELLICOTT         N/A    N/A N/A N/A CALM      30.13F
FALCON         FAIR      45  36  71 CALM      30.16S
FORT CARSON    NOT AVBL
LIMON          FAIR      40  36  86 SE7       30.14S
MONUMENT HILL  FAIR      48  34  57 SW8       30.15F
CANON CITY     FAIR      45  39  81 E3        30.14S
WALSENBURG     NOT AVBL
TRINIDAD       FAIR      50  39  66 W10       30.14F
$$

COZ042>045-048>051-090-091-231500-
...NORTHEAST COLORADO...

CITY           SKY/WX    TMP DP  RH WIND       PRES   REMARKS
GREELEY ARPT   FAIR      40  36  86 VRB3      30.11
AKRON          FAIR      43  37  79 S13       30.11R
BURLINGTON     FAIR      45  39  79 S10       30.17R
WRAY           FAIR      46  37  71 S7        30.16S
YUMA           FAIR      43  37  81 S13       30.13S
STERLING       NOT AVBL
HOLYOKE        FAIR      45  39  81 S8        30.15S
FORT MORGAN    FAIR      42  37  84 CALM      30.11S
$$

COZ086-089-092>099-231500-
...SOUTHEAST COLORADO...

CITY           SKY/WX    TMP DP  RH WIND       PRES   REMARKS
PUEBLO         FAIR      43  34  70 CALM      30.14R
LA JUNTA       FAIR      42  37  82 CALM      30.14R
LAMAR          FAIR      47  39  74 CALM      30.15R
SPRINGFIELD      N/A     44  40  85 S13       30.15F
$$




USA.gov is the U.S. government's official web portal to all federal, state and local government web resources and services.